Weather History for KGBG - October, 2011

Change the Weather History Date:

Sunday, October 16, 2011

  Actual Average Record
Temperature  
Mean Temperature 55 °F -  
Max Temperature 64 °F 64 °F 85 °F (1950)
Min Temperature 46 °F 43 °F 26 °F (2002)
Degree Days  
Heating Degree Days 10    
Growing Degree Days 5 (Base 50)    
Moisture  
Dew Point 36 °F    
Average Humidity 51    
Maximum Humidity 71    
Minimum Humidity 32    
Precipitation  
Precipitation 0.00 in - - ()
Sea Level Pressure  
Sea Level Pressure 29.87 in    
Wind  
Wind Speed 9 mph (WSW)    
Max Wind Speed 22 mph    
Max Gust Speed 25 mph    
Visibility 10 miles    
Events Rain    
Averages and records for this station are not official NWS values.
T = Trace of Precipitation, MM = Missing Value Source: NWS Daily Summary

Daily Weather History Graph

Daily Weather History Graph

Search for Another Location

Airport or City:

Trip Planner

Search our weather history database for the weather conditions in past years. The results will help you decide how hot, cold, wet, or windy it might be!

Date:

Astronomy

Oct. 16, 2011 Rise Set
Actual Time 7:13 AM CDT 6:20 PM CDT
Civil Twilight 6:46 AM CDT 6:47 PM CDT
Nautical Twilight 6:14 AM CDT 7:19 PM CDT
Astronomical Twilight 5:42 AM CDT 7:51 PM CDT
Moon 9:04 PM CDT (10/16) 11:33 AM CDT (10/16)
Length of Visible Light 12h 01m
Length of Day
11h 06m
Waning Gibbous, 82% of the Moon is Illuminated
Oct 16
Waning Gibbous
Oct 19
Last Quarter
Oct 26
New
Nov 2
First Quarter
Nov 10
Full

Hourly Weather History & Observations

Time (CDT) Temp. Windchill Dew Point Humidity Pressure Visibility Wind Dir Wind Speed Gust Speed Precip Events Conditions
12:15 AM 51.8 °F - 33.8 °F 50% 29.88 in 10.0 mi SE 6.9 mph - N/A   Clear
12:35 AM 51.8 °F - 33.8 °F 50% 29.87 in 10.0 mi SE 8.1 mph - N/A   Clear
12:55 AM 51.8 °F - 33.8 °F 50% 29.85 in 10.0 mi SE 9.2 mph - N/A   Clear
1:15 AM 51.8 °F - 33.8 °F 50% 29.84 in 10.0 mi SE 8.1 mph - N/A   Clear
1:55 AM 51.8 °F - 33.8 °F 50% 29.82 in 10.0 mi SE 9.2 mph - N/A   Clear
2:15 AM 51.8 °F - 35.6 °F 54% 29.81 in 10.0 mi SE 8.1 mph - N/A   Clear
2:35 AM 51.8 °F - 35.6 °F 54% 29.80 in 10.0 mi SE 9.2 mph - N/A   Clear
2:55 AM 51.8 °F - 35.6 °F 54% 29.79 in 10.0 mi SSE 5.8 mph - N/A   Clear
3:15 AM 51.8 °F - 35.6 °F 54% 29.79 in 10.0 mi SSE 6.9 mph - N/A   Clear
3:35 AM 51.8 °F - 35.6 °F 54% 29.78 in 10.0 mi SSE 5.8 mph - N/A   Clear
3:55 AM 51.8 °F - 35.6 °F 54% 29.79 in 10.0 mi South 6.9 mph - N/A   Clear
4:15 AM 51.8 °F - 35.6 °F 54% 29.78 in 10.0 mi South 10.4 mph - N/A   Clear
4:35 AM 53.6 °F - 37.4 °F 54% 29.78 in 10.0 mi South 8.1 mph - N/A   Clear
4:55 AM 51.8 °F - 37.4 °F 58% 29.78 in 10.0 mi South 6.9 mph - N/A   Clear
5:15 AM 53.6 °F - 37.4 °F 54% 29.78 in 10.0 mi South 5.8 mph - N/A   Clear
5:35 AM 53.6 °F - 37.4 °F 54% 29.77 in 10.0 mi South 6.9 mph - N/A   Clear
5:55 AM 51.8 °F - 39.2 °F 62% 29.77 in 10.0 mi South 5.8 mph - N/A   Clear
6:15 AM 51.8 °F - 39.2 °F 62% 29.78 in 10.0 mi Calm Calm - N/A   Clear
6:35 AM 50.0 °F - 39.2 °F 66% 29.80 in 10.0 mi SW 4.6 mph - N/A   Clear
6:55 AM 51.8 °F - 41.0 °F 67% 29.79 in 10.0 mi South 5.8 mph - N/A   Scattered Clouds
7:15 AM 51.8 °F - 41.0 °F 67% 29.79 in 10.0 mi WNW 3.5 mph - N/A   Scattered Clouds
7:35 AM 51.8 °F - 42.8 °F 71% 29.79 in 10.0 mi South 5.8 mph - N/A   Scattered Clouds
7:55 AM 53.6 °F - 42.8 °F 67% 29.81 in 10.0 mi Calm Calm - N/A   Mostly Cloudy
8:15 AM 53.6 °F - 42.8 °F 67% 29.77 in 10.0 mi Calm Calm - N/A   Scattered Clouds
8:35 AM 55.4 °F - 44.6 °F 67% 29.78 in 10.0 mi South 3.5 mph - N/A   Scattered Clouds
8:55 AM 55.4 °F - 44.6 °F 67% 29.82 in 10.0 mi West 3.5 mph - N/A   Scattered Clouds
9:15 AM 59.0 °F - 44.6 °F 59% 29.86 in 10.0 mi West 13.8 mph 18.4 mph N/A   Clear
9:35 AM 57.2 °F - 42.8 °F 59% 29.84 in 10.0 mi WNW 11.5 mph 17.3 mph N/A Rain Light Rain
9:55 AM 55.4 °F - 41.0 °F 58% 29.84 in 10.0 mi NW 13.8 mph 18.4 mph N/A   Clear
10:15 AM 55.4 °F - 41.0 °F 58% 29.84 in 10.0 mi NNW 13.8 mph - N/A   Mostly Cloudy
10:35 AM 55.4 °F - 42.8 °F 63% 29.84 in 10.0 mi NNW 17.3 mph - N/A   Mostly Cloudy
10:55 AM 55.4 °F - 42.8 °F 63% 29.89 in 10.0 mi NNW 10.4 mph 16.1 mph N/A   Scattered Clouds
11:15 AM 55.4 °F - 42.8 °F 63% 29.86 in 10.0 mi NNW 16.1 mph - N/A   Scattered Clouds
11:35 AM 57.2 °F - 41.0 °F 55% 29.89 in 10.0 mi NW 6.9 mph - N/A   Scattered Clouds
11:55 AM 62.6 °F - 37.4 °F 39% 29.86 in 10.0 mi NW 17.3 mph 23.0 mph N/A   Clear
12:15 PM 62.6 °F - 33.8 °F 34% 29.87 in 10.0 mi NNW 21.9 mph - N/A   Clear
12:35 PM 64.4 °F - 33.8 °F 32% 29.89 in 10.0 mi WNW 17.3 mph 21.9 mph N/A   Clear
12:55 PM 62.6 °F - 33.8 °F 34% 29.87 in 10.0 mi WNW 17.3 mph 21.9 mph N/A   Clear
1:15 PM 60.8 °F - 35.6 °F 39% 29.89 in 10.0 mi WNW 16.1 mph - N/A   Clear
1:35 PM 60.8 °F - 33.8 °F 36% 29.90 in 10.0 mi WNW 18.4 mph 25.3 mph N/A   Clear
1:55 PM 60.8 °F - 35.6 °F 39% 29.91 in 10.0 mi WNW 16.1 mph 23.0 mph N/A   Clear
2:15 PM 60.8 °F - 33.8 °F 36% 29.91 in 10.0 mi WNW 16.1 mph 23.0 mph N/A   Clear
2:35 PM 60.8 °F - 35.6 °F 39% 29.91 in 10.0 mi West 12.7 mph 19.6 mph N/A   Clear
2:55 PM 60.8 °F - 33.8 °F 36% 29.91 in 10.0 mi West 15.0 mph 18.4 mph N/A   Clear
3:15 PM 60.8 °F - 33.8 °F 36% 29.91 in 10.0 mi WNW 16.1 mph - N/A   Clear
3:35 PM 59.0 °F - 33.8 °F 39% 29.91 in 10.0 mi West 12.7 mph - N/A   Clear
3:55 PM 60.8 °F - 32.0 °F 34% 29.92 in 10.0 mi West 12.7 mph - N/A   Clear
4:15 PM 60.8 °F - 32.0 °F 34% 29.92 in 10.0 mi WNW 12.7 mph 21.9 mph N/A   Clear
4:35 PM 59.0 °F - 32.0 °F 36% 29.92 in 10.0 mi West 12.7 mph 19.6 mph N/A   Clear
4:55 PM 59.0 °F - 32.0 °F 36% 29.92 in 10.0 mi West 15.0 mph - N/A   Clear
5:15 PM 59.0 °F - 32.0 °F 36% 29.91 in 10.0 mi West 13.8 mph 18.4 mph N/A   Clear
5:35 PM 59.0 °F - 32.0 °F 36% 29.91 in 10.0 mi West 11.5 mph 17.3 mph N/A   Clear
5:55 PM 57.2 °F - 32.0 °F 38% 29.92 in 10.0 mi West 8.1 mph - N/A   Clear
6:15 PM 53.6 °F - 32.0 °F 44% 29.92 in 10.0 mi WSW 8.1 mph - N/A   Clear
6:35 PM 53.6 °F - 32.0 °F 44% 29.92 in 10.0 mi WSW 6.9 mph - N/A   Clear
6:55 PM 53.6 °F - 32.0 °F 44% 29.93 in 10.0 mi SW 8.1 mph - N/A   Clear
7:15 PM 53.6 °F - 32.0 °F 44% 29.93 in 10.0 mi SW 5.8 mph - N/A   Clear
7:35 PM 53.6 °F - 32.0 °F 44% 29.93 in 10.0 mi SW 8.1 mph - N/A   Clear
7:55 PM 53.6 °F - 32.0 °F 44% 29.94 in 10.0 mi SW 6.9 mph - N/A   Clear
8:15 PM 51.8 °F - 32.0 °F 47% 29.94 in 10.0 mi SW 6.9 mph - N/A   Clear
8:35 PM 51.8 °F - 32.0 °F 47% 29.94 in 10.0 mi SW 8.1 mph - N/A   Clear
8:55 PM 51.8 °F - 33.8 °F 50% 29.95 in 10.0 mi SW 8.1 mph - N/A   Clear
9:15 PM 51.8 °F - 33.8 °F 50% 29.95 in 10.0 mi WSW 9.2 mph - N/A   Clear
9:35 PM 50.0 °F - 33.8 °F 54% 29.96 in 10.0 mi WSW 9.2 mph - N/A   Clear
9:55 PM 50.0 °F - 33.8 °F 54% 29.96 in 10.0 mi WSW 8.1 mph - N/A   Clear
10:15 PM 50.0 °F - 33.8 °F 54% 29.96 in 10.0 mi WSW 6.9 mph - N/A   Clear
10:35 PM 50.0 °F - 33.8 °F 54% 29.96 in 10.0 mi WSW 9.2 mph - N/A   Clear
10:55 PM 48.2 °F - 33.8 °F 58% 29.97 in 10.0 mi WSW 6.9 mph - N/A   Clear
11:15 PM 46.4 °F 42.9 °F 33.8 °F 62% 29.97 in 10.0 mi WSW 6.9 mph - N/A   Clear
11:35 PM 46.4 °F 42.4 °F 33.8 °F 62% 29.97 in 10.0 mi WSW 8.1 mph - N/A   Clear
11:55 PM 46.4 °F 42.9 °F 33.8 °F 62% 29.97 in 10.0 mi WSW 6.9 mph - N/A   Clear